Berthoud Pass, CO

10:00 PM MDT on September 19, 2019 (GMT -0600)
Berthoud Pass

Weather History for K0CO - August, 2019

Change the Weather History Date:

Sunday, August 25, 2019

  Actual Average (WUND) Record (WUND)
Temperature  
Mean Temperature 50 °F -  
Max Temperature 57 °F - - (-1)
Min Temperature 42 °F - - (-1)
Degree Days  
Heating Degree Days 16    
Moisture  
Dew Point 35 °F    
Average Humidity 59    
Maximum Humidity 62    
Minimum Humidity 54    
Precipitation  
Precipitation 0.00 in - - ()
Sea Level Pressure  
Sea Level Pressure 30.54 in    
Wind  
Wind Speed 35 mph (NW)    
Max Wind Speed 43 mph    
Max Gust Speed 59 mph    
Visibility 10 miles    
Events      
Averages and records for this station are not official NWS values.
T = Trace of Precipitation, MM = Missing Value Source: NWS Daily Summary

Daily Weather History Graph

Daily Weather History Graph

Search for Another Location

Airport or City:

Astronomy

Aug. 25, 2019 Rise Set
Actual Time 6:24 AM MDT 7:45 PM MDT
Civil Twilight 5:56 AM MDT 8:13 PM MDT
Nautical Twilight 5:22 AM MDT 8:46 PM MDT
Astronomical Twilight 4:46 AM MDT 9:22 PM MDT
Moon 1:01 AM MDT (8/25) 4:08 PM MDT (8/25)
Length of Visible Light 14h 17m
Length of Day
13h 20m
Waning Crescent, 28% of the Moon is Illuminated
Aug 25
Waning Crescent
Aug 30
New
Sep 5
First Quarter
Sep 13
Full
Sep 21
Last Quarter

Hourly Weather History & Observations

Time (MDT) Temp. Windchill Dew Point Humidity Pressure Visibility Wind Dir Wind Speed Gust Speed Precip Events Conditions
12:12 AM 44.6 °F 34.6 °F 32.0 °F 61% 30.56 in 10.0 mi WNW 31.1 mph 43.7 mph N/A   Clear
12:36 AM 44.6 °F 34.6 °F 32.0 °F 61% 30.57 in 10.0 mi NW 31.1 mph 38.0 mph N/A   Clear
12:54 AM 44.6 °F 34.6 °F 32.0 °F 61% 30.56 in 10.0 mi WNW 31.1 mph 40.3 mph N/A   Clear
1:12 AM 44.6 °F 34.4 °F 32.0 °F 61% 30.56 in 10.0 mi WNW 32.2 mph 40.3 mph N/A   Clear
1:36 AM 44.6 °F 33.8 °F 32.0 °F 61% 30.54 in 10.0 mi NW 36.8 mph 44.9 mph N/A   Clear
1:54 AM 44.6 °F 33.6 °F 32.0 °F 61% 30.53 in 10.0 mi WNW 38.0 mph 47.2 mph N/A   Clear
2:12 AM 44.6 °F 33.9 °F 32.0 °F 61% 30.53 in 10.0 mi WNW 35.7 mph 46.0 mph N/A   Clear
2:36 AM 44.6 °F 33.3 °F 32.0 °F 61% 30.52 in 10.0 mi NW 40.3 mph 52.9 mph N/A   Clear
2:54 AM 44.6 °F 33.8 °F 32.0 °F 61% 30.53 in 10.0 mi NW 36.8 mph 46.0 mph N/A   Clear
3:12 AM 44.6 °F 34.1 °F 32.0 °F 61% 30.53 in 10.0 mi NW 34.5 mph 49.5 mph N/A   Clear
3:36 AM 44.6 °F 33.3 °F 32.0 °F 61% 30.51 in 10.0 mi NW 40.3 mph 47.2 mph N/A   Clear
3:54 AM 44.6 °F 33.5 °F 32.0 °F 61% 30.52 in 10.0 mi NW 39.1 mph 49.5 mph N/A   Clear
4:12 AM 42.8 °F 30.5 °F 30.2 °F 61% 30.50 in 10.0 mi WNW 42.6 mph 49.5 mph N/A   Clear
4:36 AM 42.8 °F 30.5 °F 30.2 °F 61% 30.50 in 10.0 mi WNW 42.6 mph 49.5 mph N/A   Clear
4:54 AM 42.8 °F 30.8 °F 30.2 °F 61% 30.50 in 10.0 mi WNW 40.3 mph 50.6 mph N/A   Clear
5:12 AM 42.8 °F 31.1 °F 30.2 °F 61% 30.49 in 10.0 mi WNW 38.0 mph 49.5 mph N/A   Clear
5:36 AM 42.8 °F 30.8 °F 30.2 °F 61% 30.49 in 10.0 mi NW 40.3 mph 54.1 mph N/A   Clear
5:54 AM 42.8 °F 31.3 °F 30.2 °F 61% 30.50 in 10.0 mi NW 36.8 mph 51.8 mph N/A   Clear
6:12 AM 42.8 °F 31.1 °F 30.2 °F 61% 30.50 in 10.0 mi WNW 38.0 mph 47.2 mph N/A   Clear
6:32 AM 42.8 °F 30.7 °F 30.2 °F 61% 30.49 in 10.0 mi NW 41.4 mph 54.1 mph N/A   Clear
6:56 AM 42.8 °F 31.1 °F 30.2 °F 61% 30.51 in 10.0 mi NW 38.0 mph 46.0 mph N/A   Clear
7:12 AM 42.8 °F 31.4 °F 30.2 °F 61% 30.51 in 10.0 mi NW 35.7 mph 49.5 mph N/A   Clear
7:36 AM 42.8 °F 31.4 °F 30.2 °F 61% 30.51 in 10.0 mi NW 35.7 mph 48.3 mph N/A   Clear
7:54 AM 44.6 °F 33.2 °F 30.2 °F 57% 30.52 in 10.0 mi NW 41.4 mph 51.8 mph N/A   Clear
8:12 AM 44.6 °F 33.6 °F 30.2 °F 57% 30.53 in 10.0 mi WNW 38.0 mph 52.9 mph N/A   Clear
8:36 AM 44.6 °F 33.5 °F 32.0 °F 61% 30.54 in 10.0 mi NW 39.1 mph 48.3 mph N/A   Clear
8:54 AM 44.6 °F 34.4 °F 30.2 °F 57% 30.55 in 10.0 mi NW 32.2 mph 44.9 mph N/A   Clear
9:12 AM 44.6 °F 33.5 °F 32.0 °F 61% 30.53 in 10.0 mi NW 39.1 mph 51.8 mph N/A   Clear
9:36 AM 44.6 °F 33.9 °F 32.0 °F 61% 30.56 in 10.0 mi NW 35.7 mph 51.8 mph N/A   Clear
9:54 AM 46.4 °F 36.0 °F 32.0 °F 57% 30.55 in 10.0 mi NW 39.1 mph 49.5 mph N/A   Clear
10:12 AM 46.4 °F 35.6 °F 33.8 °F 62% 30.55 in 10.0 mi NW 42.6 mph 49.5 mph N/A   Clear
10:36 AM 50.0 °F - 33.8 °F 54% 30.55 in 10.0 mi WNW 40.3 mph 57.5 mph N/A   Clear
10:54 AM 50.0 °F - 35.6 °F 58% 30.56 in 10.0 mi NW 42.6 mph 49.5 mph N/A   Clear
11:12 AM 50.0 °F - 35.6 °F 58% 30.57 in 10.0 mi WNW 39.1 mph 54.1 mph N/A   Clear
11:36 AM 51.8 °F - 37.4 °F 58% 30.57 in 10.0 mi WNW 38.0 mph 54.1 mph N/A   Scattered Clouds
12:12 PM 51.8 °F - 37.4 °F 58% 30.57 in 10.0 mi NW 35.7 mph 52.9 mph N/A   Scattered Clouds
12:36 PM 51.8 °F - 37.4 °F 58% 30.57 in 10.0 mi NW 35.7 mph 51.8 mph N/A   Scattered Clouds
12:54 PM 53.6 °F - 39.2 °F 58% 30.58 in 10.0 mi WNW 36.8 mph 58.7 mph N/A   Mostly Cloudy
1:35 PM 51.8 °F - 35.6 °F 54% 30.57 in 10.0 mi NW 29.9 mph 39.1 mph N/A   Overcast
1:53 PM 51.8 °F - 37.4 °F 58% 30.56 in 10.0 mi NW 33.4 mph 39.1 mph N/A   Overcast
2:12 PM 53.6 °F - 37.4 °F 54% 30.58 in 10.0 mi NW 24.2 mph - N/A   Overcast
2:35 PM 53.6 °F - 39.2 °F 58% 30.57 in 10.0 mi West 29.9 mph 42.6 mph N/A   Mostly Cloudy
3:12 PM 53.6 °F - 39.2 °F 58% 30.55 in 10.0 mi WNW 31.1 mph 43.7 mph N/A   Mostly Cloudy
3:35 PM 57.2 °F - 42.8 °F 59% 30.54 in 10.0 mi WNW 35.7 mph - N/A   Mostly Cloudy
3:53 PM 57.2 °F - 42.8 °F 59% 30.56 in 10.0 mi WNW 26.5 mph 42.6 mph N/A   Mostly Cloudy
4:12 PM 55.4 °F - 41.0 °F 58% 30.54 in 10.0 mi NW 31.1 mph 48.3 mph N/A   Scattered Clouds
4:36 PM 57.2 °F - 42.8 °F 59% 30.53 in 10.0 mi West 39.1 mph 49.5 mph N/A   Mostly Cloudy
4:54 PM 53.6 °F - 39.2 °F 58% 30.55 in 10.0 mi WNW 31.1 mph 41.4 mph N/A   Mostly Cloudy
5:12 PM 53.6 °F - 37.4 °F 54% 30.55 in 10.0 mi NW 26.5 mph 41.4 mph N/A   Scattered Clouds
5:36 PM 53.6 °F - 39.2 °F 58% 30.55 in 10.0 mi North - - N/A   Scattered Clouds
5:54 PM 55.4 °F - 41.0 °F 58% 30.53 in 10.0 mi North - - N/A   Scattered Clouds
6:32 PM 55.4 °F - 41.0 °F 58% 30.55 in 10.0 mi North - - N/A   Scattered Clouds
6:56 PM 55.4 °F - 41.0 °F 58% 30.54 in 10.0 mi NW 35.7 mph - N/A   Scattered Clouds
7:17 PM 53.6 °F - 39.2 °F 58% 30.53 in 10.0 mi WNW 38.0 mph 44.9 mph N/A   Clear
7:35 PM 53.6 °F - 37.4 °F 54% 30.53 in 10.0 mi WNW 29.9 mph - N/A   Clear
7:53 PM 51.8 °F - 37.4 °F 58% 30.54 in 10.0 mi North - - N/A   Scattered Clouds
8:17 PM 51.8 °F - 35.6 °F 54% 30.55 in 10.0 mi WNW 29.9 mph 46.0 mph N/A   Scattered Clouds
8:35 PM 51.8 °F - 35.6 °F 54% 30.53 in 10.0 mi WNW 38.0 mph 50.6 mph N/A   Clear
8:53 PM 50.0 °F - 35.6 °F 58% 30.56 in 10.0 mi WNW 25.3 mph 44.9 mph N/A   Clear
9:12 PM 51.8 °F - 35.6 °F 54% 30.55 in 10.0 mi North - - N/A   Scattered Clouds
9:36 PM 50.0 °F - 35.6 °F 58% 30.56 in 10.0 mi North - - N/A   Scattered Clouds
9:54 PM 50.0 °F - 35.6 °F 58% 30.55 in 10.0 mi WNW 29.9 mph 41.4 mph N/A   Mostly Cloudy
10:12 PM 50.0 °F - 35.6 °F 58% 30.55 in 10.0 mi North - - N/A   Mostly Cloudy
10:36 PM 50.0 °F - 35.6 °F 58% 30.55 in 10.0 mi North - - N/A   Scattered Clouds
10:54 PM 50.0 °F - 33.8 °F 54% 30.54 in 10.0 mi WNW 29.9 mph 42.6 mph N/A   Scattered Clouds
11:12 PM 48.2 °F - 33.8 °F 58% 30.52 in 10.0 mi NW 34.5 mph 41.4 mph N/A   Scattered Clouds
11:36 PM 48.2 °F - 33.8 °F 58% 30.53 in 10.0 mi NW 35.7 mph 41.4 mph N/A   Scattered Clouds
11:54 PM 46.4 °F 35.8 °F 32.0 °F 57% 30.50 in 10.0 mi NW 40.3 mph 49.5 mph N/A   Scattered Clouds